Regional Weather Roundup
Issued by NWS

Home | Current Version | Previous Version | Graphics & Text | Print | Product List | Glossary On
Versions: 1 2 3 4 5 6 7 8 9 10 11 12 13 14 15 16 17 18 19 20 21 22 23 24 25 26 27 28 29 30 31 32 33 34 35 36 37 38 39 40 41 42 43 44 45 46 47 48 49 50
000
ASUS45 KCYS 290110
RWRWY

WYOMING REGIONAL WEATHER ROUNDUP
NATIONAL WEATHER SERVICE CHEYENNE WY
700 PM MDT MON JUL 28 2014

NOTE:  "FAIR" INDICATES FEW OR NO CLOUDS BELOW 12,000 FEET
WITH NO SIGNIFICANT WEATHER AND/OR OBSTRUCTIONS TO VISIBILITY.

WYZ001-290200-
YELLOWSTONE NATIONAL PARK

CITY           SKY/WX    TMP DP  RH WIND       PRES   REMARKS
LK YELLOWSTONE   N/A     67  39  35 NW3       30.49F
W YELLOWSTONE  NOT AVBL

$$
WYZ002>013-054>058-071-098>099-290200-
NORTHERN WYOMING

CITY           SKY/WX    TMP DP  RH WIND       PRES   REMARKS
JACKSON        MOSUNNY   75  41  29 MISG      30.30
CODY           NOT AVBL
GREYBULL       PTSUNNY   93  35  13 N18       30.09F
WORLAND        PTSUNNY   88  37  16 N7        30.10F
SHERIDAN       MOSUNNY   84  47  27 NE7       30.18S
BUFFALO        PTSUNNY   82  47  29 SW9       30.26S
GILLETTE       SUNNY     83  50  31 E17       30.21S
HULETT         FAIR      77  52  41 MISG      30.26
NEWCASTLE      FAIR      81  45  28 MISG      30.22

$$
WYZ014>020-022>026-101>103-290200-
CENTRAL WYOMING

CITY           SKY/WX    TMP DP  RH WIND       PRES   REMARKS
BIG PINEY      CLOUDY    79  34  19 N18       30.31F
PINEDALE       CLOUDY    75  41  29 NW9       30.32S
DUBOIS         FAIR      72  36  26 S7        30.38R
LANDER         CLOUDY    86  36  16 NW5       30.18F
RIVERTON       CLOUDY    87  28  12 NE8       30.20S
CASPER         SUNNY     87  36  16 E14       30.21F
DOUGLAS        MOSUNNY   87  43  21 SE12      30.22F

$$
WYZ021-027>030-104>119-290200-
SOUTHERN WYOMING

CITY           SKY/WX    TMP DP  RH WIND       PRES   REMARKS
EVANSTON       CLOUDY    61  54  77 SW21      30.38F
FORT BRIDGER   CLOUDY    71  48  44 W13G26    30.38R
ROCK SPRINGS   CLOUDY    82  35  18 W7        30.27S
DIXON          FAIR      78  45  30 SW16G22   30.31R
RAWLINS        MOSUNNY   83  38  20 E13       30.29F
SARATOGA       FAIR      81  41  24 E8        30.32S
LARAMIE        MOSUNNY   73  49  42 SE7       30.36S
CHEYENNE       PTSUNNY   71  54  54 SE7G18    30.29F
TORRINGTON     SUNNY     85  51  31 SE10      30.18S
PINE BLUFFS    TSTM      70  59  68 SE9G20    30.28R

$$


USA.gov is the U.S. government's official web portal to all federal, state and local government web resources and services.